Flag for U.S.A. Weather past 2 weeks in Beaumont, Texas, U.S.A.

Now
73 °F

Broken clouds.


Feels Like: 73 °F
Forecast: 58 / 75 °F
Wind: 17 mph from South

Location: Jefferson County Airport

Current Time: Mar 3, 2015 at 5:19:27 PM

Latest Report: Mar 3, 2015 at 4:53 PM


Visibility: 10 mi

Pressure: 29.90 "Hg

Humidity: 79%

Dew point: 66 °F

Location of BeaumontLocation

Historic Weather in Beaumont — Graph

°F

Beaumont temperature yesterday

Maximum temperature yesterday: 66 °F (at 2:53 PM)
Minimum temperature yesterday: 53 °F (at 7:53 AM)
Average temperature yesterday: 59 °F

Past Weeks' High & Low Weather Summary

 TemperatureHumidityPressure
High81 °F (Feb 22, 12:53 PM)100% (Mar 3, 12:53 AM)30.44 "Hg (Mar 3, 12:53 AM)
Low33 °F (Feb 18, 12:53 AM)30% (Feb 18, 2:53 PM)29.80 "Hg (Feb 25, 3:00 PM)
Average52 °F78%30.16 "Hg
* Reported Feb 16 3:53 PM — Mar 3 3:53 PM, Beaumont, Weather by CustomWeather, © 2015

Note: Actual official high and low records may vary slightly from our data, if they occured in-between our weather recording intervals... More about our weather records

Advertising

Beaumont weather history for previous 24 hours

 ConditionsComfort  
Time TempWeatherWind HumidityBarometerVisibility
3:53 PM
Tue, Mar 3
78 °FPartly sunny.14 mph66%29.91 "Hg10 mi
2:53 PM76 °FPartly sunny.18 mph69%29.93 "Hg10 mi
1:53 PM77 °FCloudy.22 mph69%29.96 "Hg10 mi
12:53 PM80 °FPartly sunny.20 mph62%29.99 "Hg10 mi
11:53 AM76 °FPartly sunny.13 mph74%30.02 "Hg10 mi
10:53 AM69 °FFog.9 mph90%30.05 "Hg6 mi
10:00 AM65 °FFog.8 mph97%30.06 "Hg2 mi
8:53 AM62 °FFog.8 mph96%30.06 "Hg1 mi
7:53 AM60 °FFog.8 mph96%30.05 "Hg0 mi
6:53 AM58 °FFog.6 mph97%30.04 "Hg0 mi
5:53 AM58 °FFog.8 mph97%30.05 "Hg1 mi
4:53 AM58 °FFog.5 mph97%30.06 "Hg1 mi
3:53 AM57 °FFog.5 mph100%30.07 "Hg1 mi
2:53 AM57 °FFog.6 mph100%30.09 "Hg1 mi
1:53 AM57 °FFog.6 mph100%30.11 "Hg1 mi
12:53 AM57 °FFog.7 mph100%30.13 "Hg4 mi
11:53 PM
Mon, Mar 2
58 °FFog.6 mph97%30.15 "Hg1 mi
10:53 PM58 °FFog.9 mph97%30.16 "Hg1 mi
9:53 PM58 °FFog.10 mph97%30.17 "Hg1 mi
8:53 PM60 °FFog.8 mph93%30.17 "Hg5 mi
7:53 PM61 °FLow clouds.9 mph93%30.17 "Hg8 mi
6:53 PM63 °FLow clouds.9 mph87%30.16 "Hg10 mi
5:53 PM64 °FOvercast.7 mph84%30.17 "Hg9 mi
Weather by CustomWeather, © 2015

See weather overviewHow to use our weather pages